Location: Akmarijp
(53.0042°N, 5.7879°E)
Time: 10:17:24
(UTC+00:00)

Daily predictions for brighter satellites

Satellite Brightness Start Highest point End
(mag) Time Altitude Azimuth Time Altitude Azimuth Time Altitude Azimuth
BREEZE M DEB (TANK) 4.5 20:05:24 10° WSW 20:09:43 69° S 20:25:24 10° E
Meteor 1-11 Rocket 4.0 20:10:54 10° N 20:16:50 63° ENE 20:22:41 10° SSE
Terra 3.0 20:13:03 10° ESE 20:17:08 29° ENE 20:21:13 10° N
MetOp-B 4.2 20:13:03 10° SSE 20:18:25 88° ENE 20:23:49 10° NNW
Cosmos 1340 Rocket 3.9 20:17:09 10° N 20:20:52 32° ENE 20:24:33 10° SE
Cosmos 1515 Rocket 3.5 20:17:18 10° S 20:21:42 76° E 20:26:05 10° NNE
Cosmos 2228 Rocket 3.7 20:20:21 10° SSE 20:24:29 39° E 20:28:41 10° NNE
Cosmos 1869 Rocket 3.9 20:20:15 10° N 20:24:30 51° ENE 20:28:45 10° SSE
Cosmos 2315 Rocket 4.4 20:19:09 10° SSW 20:25:31 71° WNW 20:31:55 10° N
Cosmos 2112 Rocket 4.2 20:21:35 10° NNW 20:26:56 66° ENE 20:32:16 10° SE
Resurs 01 Rocket 2.3 20:23:42 10° S 20:28:03 54° W 20:32:26 10° NNW
SWARM A 4.5 20:25:24 10° N 20:28:43 72° W 20:32:02 10° S
BREEZE M DEB (TANK) 2.9 20:24:47 10° W 20:29:12 33° SSW 20:31:13 11° SE
Cosmos 2082 Rocket 2.6 20:23:49 10° NW 20:29:23 63° WSW 20:34:55 10° SSE
Cosmos 1328 Rocket 4.5 20:28:28 10° SSW 20:32:47 52° WNW 20:37:07 10° N
SPOT 1/Viking Rocket 3.6 20:28:47 10° SSE 20:33:59 87° WSW 20:39:12 10° NNW
ERS-1 Rocket 3.3 20:29:38 10° SE 20:34:31 54° ENE 20:39:26 10° N
Meteor 2-12 Rocket 4.5 20:33:02 10° N 20:39:08 78° ENE 20:45:11 10° SSE
Cosmos 1943 Rocket 3.2 20:36:01 10° SSE 20:40:39 27° ESE 20:45:15 10° NE
Spot 2 Rocket 3.5 20:35:44 10° SSE 20:40:47 84° ENE 20:45:52 10° NNW
Cosmos 1937 Rocket 4.5 20:37:26 10° SSE 20:41:46 28° E 20:46:08 10° NE
ERBS 2.3 20:38:47 10° WNW 20:42:05 66° SSW 20:44:57 13° SE
EP 1 4.2 20:39:09 10° SW 20:42:05 64° SE 20:44:41 10° NE
Meteor 1-10 Rocket 4.2 20:38:39 10° S 20:44:16 80° E 20:50:02 10° NNE
Cosmos 1536 2.9 20:40:52 10° N 20:44:56 70° ENE 20:48:43 11° SSE
CZ-2C R/B 3.7 20:41:24 10° NNE 20:45:56 81° ESE 20:50:32 10° SSW
CARTOSAT-1 3.6 20:42:29 10° SSE 20:46:48 82° ENE 20:51:08 10° NNW
SPOT 5 3.2 20:42:26 10° SSE 20:47:32 67° ENE 20:52:52 10° N
Cosmos 1271 Rocket 2.9 20:47:04 10° SSW 20:51:05 84° WNW 20:55:07 10° NNE
Cosmos 2341 Rocket 4.5 20:45:55 10° N 20:52:09 50° ENE 20:57:43 13° SE
Cosmos 1680 Rocket 3.7 20:47:07 10° NNW 20:52:28 75° WSW 20:57:31 11° SSE
Cosmos 1238 Rocket 4.3 20:49:11 10° N 20:54:53 42° ENE 20:59:04 14° SE
ISS -3.0 20:52:40 10° SW 20:55:41 30° SSE 20:58:42 10° E
Cosmos 2278 Rocket 2.7 20:51:39 10° SW 20:57:17 64° NW 21:02:56 10° NNE
Cosmos 2084 Rocket 3.8 20:53:06 10° NW 20:57:17 58° SW 21:00:52 15° SSE
Cosmos 1544 3.0 20:54:40 10° N 20:58:18 72° ENE 21:01:17 15° SSE
SJ 16-02 2.0 20:55:23 10° SW 20:59:46 59° WNW 21:04:11 10° NNE
Cosmos 2369 Rocket 3.5 20:58:46 13° SE 21:02:06 22° ESE 21:06:20 10° NE
Cosmos 1975 4.3 20:59:21 10° N 21:02:42 25° ENE 21:05:24 13° ESE
Cosmos 1666 4.4 21:01:33 10° NNW 21:04:49 29° W 21:08:03 10° SSW
JB-3 4.2 21:04:10 10° NNE 21:08:03 75° ESE 21:11:52 10° S
Cosmos 1733 Rocket 3.4 21:05:02 10° N 21:09:16 50° ENE 21:12:25 17° SE
SL-8 Rocket 4.4 21:05:34 10° N 21:11:48 54° ENE 21:16:50 16° SSE
RESURS DK-1 3.3 21:10:26 10° NNW 21:14:25 41° NE 21:17:43 14° ESE
ARIANE 5 R/B 3.2 21:10:14 10° S 21:14:25 53° W 21:18:42 10° NNW
SL-27 R/B 4.4 21:14:37 10° N 21:17:08 19° NE 21:19:32 11° E
BREEZE-M DEB (TANK) 2.7 21:17:01 10° WSW 21:18:40 21° SSW 21:18:57 20° S
Iridium 4 Rocket 4.4 21:14:34 10° SSW 21:20:23 60° W 21:26:12 10° N
CZ-4B DEB 4.2 21:21:13 21° SSE 21:23:17 90° W 21:26:31 10° NNW
Cosmos 990 Rocket 4.0 21:20:36 10° SSW 21:25:51 89° WNW 21:31:10 10° NNE
Cosmos 1898 Rocket 3.5 21:23:32 10° SSW 21:28:51 81° ESE 21:34:14 10° NNE
ATLAS 2AS CENTAUR R/B 3.5 21:22:15 10° NW 21:29:05 42° WSW 21:34:29 14° S
USA 215 3.8 21:23:01 10° E 21:29:28 64° N 21:35:54 10° WNW
Meteor 1-27 Rocket 4.1 21:26:28 10° SSW 21:32:20 73° WNW 21:38:19 10° N
Cosmos 1818 4.2 21:29:44 10° NW 21:34:59 46° WSW 21:38:46 18° S
Cosmos 1743 3.1 21:32:31 10° NNW 21:36:21 60° W 21:39:06 18° S
Nadezhda 1 Rocket 4.4 21:37:15 10° SSW 21:43:28 63° WNW 21:49:38 10° N
Meteor 1-19 Rocket 4.3 21:43:17 19° S 21:47:05 59° E 21:52:26 10° NNE
BREEZE-M R/B 2.6 21:45:32 10° WSW 21:47:48 33° S 21:48:00 32° S
Cosmos 2297 Rocket 4.4 21:45:00 10° NNW 21:49:08 20° NNE 21:53:17 10° ENE
H-2A R/B 3.4 21:45:02 10° NNE 21:49:14 87° ESE 21:52:22 17° SSW
Cosmos 44 Rocket 3.8 21:46:53 10° NW 21:52:06 61° NE 21:56:13 16° ESE
NOSS 2-1 (C) 4.4 21:48:05 10° NW 21:52:22 56° NE 21:57:57 11° ESE
Meteor 2-4 Rocket 4.3 21:51:00 21° SSE 21:54:19 42° E 21:59:31 10° NNE
Terra 2.5 21:51:09 16° S 21:54:42 48° W 21:59:20 10° NNW
Cosmos 1461 3.1 21:51:53 10° SSW 21:56:34 72° SE 22:01:09 10° NE
Cosmos 1340 Rocket 4.4 21:53:41 10° NNW 21:57:16 30° W 22:00:21 13° SSW
Okean 1-7 4.1 21:56:31 22° SE 21:58:15 30° E 22:02:00 10° NNE
NOSS 2-1 (D) 4.3 21:54:57 10° NW 21:59:17 61° NE 22:04:37 13° ESE
Cosmos 1862 Rocket 3.4 21:57:49 22° S 22:00:34 81° E 22:04:55 10° NNE
Cosmos 1782 Rocket 4.4 21:57:28 10° N 22:01:41 39° ENE 22:04:03 22° SE
Cosmos 2297 3.9 21:56:23 10° SW 22:02:05 73° WNW 22:07:47 10° NNE
Cosmos 1703 Rocket 4.5 22:00:16 24° SE 22:02:09 34° E 22:06:10 10° NNE
Cosmos 1833 4.3 21:56:50 10° NNW 22:02:38 83° ENE 22:06:28 22° SE
Okean 1 3.3 22:00:55 21° SSW 22:03:32 80° W 22:07:32 10° N
ATLAS CENTAUR R/B 2.0 22:10:15 29° SE 22:10:34 29° ESE 22:13:56 10° ENE
COSMOS 2487 4.4 22:08:10 10° N 22:10:53 22° NE 22:12:53 14° E
Cosmos 1607 4.3 22:06:38 17° S 22:11:24 49° ESE 22:17:38 10° NE
Cosmos 1821 Rocket 4.4 22:07:09 10° N 22:13:30 58° ENE 22:17:36 22° SE
Cosmos 2366 rocket 4.1 22:08:32 10° NNW 22:14:44 75° W 22:18:59 21° S
Cosmos 1515 4.5 22:13:57 16° SW 22:16:43 48° WNW 22:20:25 10° N
Cosmos 2181 Rocket 4.0 22:16:13 18° SSW 22:20:59 82° W 22:27:10 10° N
Cosmos 1937 Rocket 4.1 22:18:23 10° SW 22:23:27 55° WNW 22:28:34 10° NNE
Cosmos 1943 Rocket 2.5 22:18:23 10° SW 22:23:59 67° NW 22:29:35 10° NNE
ISS -3.9 22:28:51 10° WSW 22:32:12 67° S 22:35:34 10° E
Cosmos 1867 3.6 22:28:40 18° SSW 22:32:46 65° SE 22:38:13 10° NE
Spot 4 3.8 22:30:35 29° SSE 22:33:09 85° WSW 22:38:03 10° NNW
Cosmos 1656 Rocket 3.7 22:30:07 24° S 22:33:22 62° ESE 22:38:52 10° NE
DNEPR-1 R/B 4.4 22:30:18 10° WSW 22:35:49 61° NW 22:40:29 10° NE
Cosmos 1975 3.8 22:35:34 10° NNW 22:39:16 38° W 22:41:09 23° SW
SJ 16-02 4.4 22:37:12 10° WNW 22:39:20 13° NW 22:41:28 10° N
Cosmos 1048 Rocket 4.3 22:34:55 10° NNW 22:40:08 56° WSW 22:42:47 28° S
Cosmos 1733 4.4 22:38:49 10° N 22:42:17 33° ENE 22:43:52 23° ESE
Cosmos 2369 Rocket 2.3 22:40:29 13° SW 22:45:30 79° WNW 22:51:13 10° NNE
Cosmos 2344 4.3 22:37:25 10° NW 22:46:18 79° SW 22:56:38 16° SE
ALOS 2 2.6 22:47:43 33° SSE 22:49:41 83° ENE 22:54:07 10° NNW
RESURS DK-1 3.5 22:48:40 10° NW 22:52:21 31° WSW 22:53:36 26° SW
SL-27 R/B 3.0 22:49:11 10° NW 22:52:22 42° WSW 22:53:01 37° SW
Okean 3 3.7 22:51:44 35° SSE 22:53:15 55° E 22:57:23 10° NNE
Lacrosse 5 2.7 22:54:17 28° SSE 22:54:57 29° SE 22:59:20 10° ENE
Cosmos 1356 Rocket 3.4 22:51:40 10° NNW 22:55:59 84° W 22:57:43 36° S
NOSS 2-1 (E) 4.1 22:52:00 10° NW 22:56:42 75° SW 23:00:42 23° SE
Cosmos 1269 Rocket 4.1 22:54:52 10° NNW 23:00:12 76° ENE 23:03:10 27° SE
Cosmos 1300 Rocket 3.7 22:56:40 10° N 23:01:05 65° ENE 23:02:56 33° SSE
Nadezhda 3 Rocket 4.0 22:59:44 27° S 23:03:22 82° E 23:09:35 10° NNE
Meteor 1-12 Rocket 4.4 23:03:27 10° NNW 23:09:16 68° W 23:12:18 29° S
Aureole 2 4.4 23:08:14 10° NNW 23:11:16 65° ENE 23:12:01 46° SE
USA 215 3.3 23:05:45 10° ESE 23:12:18 82° NNE 23:18:52 10° WNW
Thor Agena Rocket 4.1 23:08:14 10° NNE 23:13:19 46° E 23:15:40 28° SSE
Cosmos 2298 Rocket 4.2 23:09:55 21° SW 23:13:28 73° WNW 23:18:48 10° NNE
Sich 1 Rocket 3.6 23:10:12 10° NNW 23:14:47 86° W 23:16:39 36° S
COSMOS 2455 3.0 23:10:53 10° NW 23:16:57 74° NE 23:21:45 17° SE
Cosmos 1805 3.1 23:13:17 10° N 23:17:12 89° W 23:18:27 42° S
Cosmos 1726 4.0 23:15:46 10° NNE 23:18:48 23° ENE 23:20:43 16° ESE
Cosmos 1605 Rocket 4.3 23:13:30 10° N 23:19:45 64° ENE 23:23:41 24° SSE
Cosmos 1378 3.3 23:22:00 38° SW 23:23:14 64° WNW 23:26:57 10° N
MTI 3.4 23:21:25 10° NNE 23:24:26 89° ENE 23:24:50 65° SSW
Cosmos 1066 Rocket 4.2 23:22:33 29° S 23:25:34 85° ESE 23:31:11 10° NNE
Okean 2 Rocket 3.0 23:21:58 10° N 23:26:24 88° E 23:28:09 36° SSE
Meteor 1-15 Rocket 4.3 23:21:17 10° NNW 23:27:00 77° W 23:30:02 30° S
Cosmos 2151 Rocket 3.6 23:23:53 10° N 23:28:26 75° ENE 23:30:21 34° SSE
COBE Rocket 4.2 23:26:12 31° SSW 23:28:35 59° W 23:33:44 10° NNW
Cosmos 2227 Rocket 3.0 23:26:38 10° NNW 23:32:08 48° NE 23:37:35 10° SE
Cosmos 44 Rocket 4.3 23:28:48 10° NW 23:33:26 33° WSW 23:34:54 28° SSW
Cosmos 2297 Rocket 2.6 23:28:46 10° NNW 23:34:24 60° NE 23:39:09 15° SE
SAR-Lupe-2 3.6 23:30:54 10° N 23:34:29 71° WNW 23:35:36 41° SW
PSLV R/B 4.3 23:30:51 10° NNE 23:34:57 40° E 23:36:26 29° SE
Cosmos 1766 3.2 23:31:45 10° NNW 23:35:44 83° W 23:36:58 42° S
Okean 1-7 4.2 23:33:21 20° SW 23:35:44 35° WNW 23:39:43 10° N
Timation 2 Rocket 4.2 23:38:20 10° NNW 23:44:17 64° NE 23:49:54 12° SE
COSMOS 2487 3.0 23:42:41 10° NW 23:45:52 38° WSW 23:46:11 37° WSW
Cosmos 1125 Rocket 4.1 23:44:32 19° SW 23:48:11 53° WNW 23:53:19 10° NNE
TSX-5 4.5 23:45:37 10° NNW 23:48:50 45° NE 23:51:39 16° ESE
ATLAS CENTAUR R/B 2.2 23:46:20 14° WSW 23:49:18 44° NW 23:53:05 10° NE
Cosmos 1934 Rocket 4.2 23:44:14 10° NNW 23:50:14 57° W 23:53:27 27° SSW
BREEZE-M DEB (TANK) 4.2 23:50:45 10° W 23:51:45 16° W 23:51:45 16° W
Cosmos 1378 Rocket 3.9 23:53:19 32° SSE 23:55:01 54° E 23:59:14 10° NNE
Cosmos 1470 3.1 23:51:28 10° N 23:55:23 61° ENE 23:57:01 32° SE
